Date,TemperatureHighF,TemperatureAvgF,TemperatureLowF,DewpointHighF,DewpointAvgF,DewpointLowF,HumidityHigh,HumidityAvg,HumidityLow,PressureMaxIn,PressureMinIn,WindSpeedMaxMPH,WindSpeedAvgMPH,GustSpeedMaxMPH,PrecipitationSumIn
2013-11-1,78,68,55,71,64,53,100,86,53,29.86,29.73,0,0,0,0.02
2013-11-2,76,62,50,55,50,44,98,68,36,30.08,29.84,0,0,0,0.01
2013-11-3,68,54,44,52,46,42,95,76,44,30.17,30.06,0,0,0,0.00
2013-11-4,70,60,46,61,54,44,94,80,69,30.18,30.08,0,0,0,0.00
2013-11-5,72,66,63,64,60,56,93,80,71,30.17,30.07,0,0,0,0.00
2013-11-6,77,68,58,71,65,56,98,90,79,30.07,29.98,0,0,0,0.00
2013-11-7,70,59,46,70,53,40,99,82,53,30.22,29.97,0,0,0,0.02
2013-11-8,67,52,42,42,37,30,82,60,27,30.25,30.11,0,0,0,0.00
2013-11-9,74,58,42,62,52,39,95,82,55,30.16,30.09,0,0,0,0.00
2013-11-10,77,63,53,60,55,50,94,76,43,30.19,30.09,0,0,0,0.00
2013-11-11,76,60,48,59,50,42,96,74,32,30.17,30.07,0,0,0,0.00
2013-11-12,73,56,42,55,47,28,99,74,44,30.37,30.10,0,0,0,0.01
2013-11-13,56,43,34,32,25,18,76,51,27,30.44,30.33,20,3,20,0.00
2013-11-14,65,52,34,52,41,27,79,67,49,30.33,30.06,14,2,14,0.00
2013-11-15,68,62,58,67,61,51,100,95,74,30.06,29.92,15,2,15,0.38
2013-11-16,70,66,62,68,65,62,100,98,91,30.00,29.91,17,2,17,0.06
2013-11-17,75,70,66,73,69,66,100,98,88,29.92,29.84,14,2,14,0.02
2013-11-18,72,66,56,72,61,41,100,84,54,30.02,29.88,25,2,25,0.49
2013-11-19,66,55,44,44,40,34,84,59,31,30.08,29.96,19,2,19,0.00
2013-11-20,70,56,40,60,49,36,97,81,55,30.05,29.97,10,1,10,0.00
2013-11-21,68,64,59,65,61,57,100,93,84,30.14,30.05,15,2,15,0.00
2013-11-22,74,68,63,69,66,62,100,94,82,30.14,30.07,10,1,10,0.01
2013-11-23,66,60,49,64,57,40,99,90,72,30.23,30.09,24,6,24,0.00
2013-11-24,55,46,40,40,29,21,73,52,28,30.29,30.20,26,5,26,0.00
2013-11-25,64,51,39,64,46,26,100,83,57,30.22,29.75,19,3,19,0.38
2013-11-26,65,50,42,65,49,42,100,97,89,29.92,29.66,27,6,27,1.51
2013-11-27,50,41,31,42,31,24,99,70,37,30.33,29.92,25,6,25,0.01
2013-11-28,50,36,27,35,28,21,95,74,31,30.42,30.31,10,2,10,0.00
2013-11-29,57,40,28,39,31,22,97,75,27,30.46,30.34,12,1,12,0.00
2013-11-30,69,48,31,52,40,30,98,79,42,30.36,30.18,9,1,9,0.01